Location: Dannhausen
(51.8650°N, 10.1026°E)
Time: 22:53:46
(UTC+00:00)

Cosmos 1633 - Pass Details

Date: 09 April 2020
Orbit: 464 x 481 km, 82.5° (Epoch: 23 May)

Event Time Altitude Azimuth Distance (km) Brightness Sun altitude
Rises 21:53:14 0° 349° (NNW) 2,518 7.4 -27.2°
Reaches altitude 10° 21:55:20 10° 349° (NNW) 1,634 6.2 -27.4°
Enters shadow 21:57:09 28° 348° (NNW) 899 4.5 -27.5°
